Wind_Speed
69 73 76 74 68 64 65 65 61 56 56 57 57 58 63 67 69 69 64 64 61 63 64 64 64 65 65 62 64 64 65 65 66 66 64 64 58 62 61 62 60 59 57 57 56
79 78 77 76 84 82 74 75 71 73 70 67 69 71 68 68 67 68 65 69 67 67 66 66 68 69 69 65 64 66 67 68 70 66 64 65 61 63 61 64 62 65 59 60 58
82 79 75 77 77 81 87 86 82 78 77 77 80 81 84 74 77 81 75 71 68 71 71 71 69 68 69 70 68 67 69 72 71 68 63 65 63 60 61 65 65 62 61 61 59
83 87 88 86 83 82 81 85 82 84 83 80 82 80 73 72 79 80 79 76 72 67 66 67 69 70 70 72 71 71 71 70 70 68 65 62 61 58 58 60 62 63 59 62 59
84 85 86 87 86 83 84 85 87 87 88 84 81 82 82 78 83 82 79 77 74 73 72 73 69 67 66 69 72 71 70 72 72 72 68 67 62 60 58 59 61 63 57 59 58
81 83 82 78 80 80 80 85 87 84 84 86 85 83 82 80 86 85 80 74 73 73 73 76 76 76 75 77 74 72 70 68 64 67 70 65 62 59 57 62 62 62 60 59 58
69 74 82 85 82 82 80 86 87 90 90 83 82 83 81 78 79 78 78 79 76 75 74 78 77 78 75 75 77 77 76 71 69 70 68 66 58 57 59 56 58 60 61 60 59
86 83 72 77 84 85 81 83 83 85 88 87 84 86 74 79 80 83 85 83 83 82 78 82 78 79 77 74 71 74 74 74 74 72 67 70 61 63 64 60 62 59 58 57 59
85 95 91 79 76 82 95 90 89 92 89 87 87 88 84 83 88 86 85 84 83 86 83 78 82 79 82 76 74 71 70 74 73 77 74 70 64 67 66 62 67 61 58 57 59
99 86 96 94 86 85 87 92 93 96 94 97 92 88 88 86 85 85 85 85 83 82 79 81 77 80 74 75 77 80 73 72 72 74 72 74 70 73 70 66 68 71 67 60 61
99 101 93 99 103 90 96 98 96 97 100 100 96 96 94 91 89 84 89 92 90 91 86 84 81 73 80 80 80 78 79 80 78 79 77 78 74 76 73 72 68 73 74 69 65
101 102 103 103 99 107 109 103 105 104 99 99 99 92 92 99 91 95 93 94 97 93 96 92 81 88 90 85 85 86 84 86 90 92 91 88 83 80 81 81 78 75 70 66 67
108 104 107 110 114 115 114 117 111 110 108 97 98 100 101 101 97 92 98 99 101 97 99 101 88 97 94 92 90 95 93 93 97 104 103 101 89 91 84 83 76 61 67 66 69
115 114 117 122 123 123 126 119 118 117 116 105 105 103 103 110 100 105 105 108 106 104 108 103 96 104 103 97 97 97 98 97 96 96 94 94 97 92 82 76 73 68 65 69 71
129 129 130 133 130 131 134 129 129 131 132 111 112 105 111 115 115 112 112 117 113 113 116 104 109 108 107 95 98 94 95 95 93 91 94 85 93 71 76 71 67 65 68 70 71
140 138 138 139 134 133 134 134 136 132 123 123 122 119 120 119 115 118 116 112 113 114 116 112 114 113 105 96 98 97 94 96 92 94 97 76 85 83 65 73 66 68 66 72 71
136 139 144 140 138 134 134 138 138 133 118 119 124 126 125 123 119 120 113 113 114 113 113 107 104 99 99 96 94 96 98 99 97 98 93 74 84 83 64 68 66 67 67 66 66
143 144 143 140 139 136 137 143 144 128 122 127 129 125 117 119 120 121 114 114 115 112 109 110 103 101 103 100 94 94 96 96 96 96 97 88 91 79 72 65 65 73 72 72 70
146 146 145 144 139 141 140 146 142 129 130 134 128 126 119 121 119 119 117 115 115 111 112 113 108 104 107 104 98 93 101 96 100 99 104 90 84 78 71 68 66 69 73 76 76
147 148 145 143 141 143 145 142 138 131 133 134 130 127 127 124 122 122 119 116 113 113 109 107 110 108 110 107 103 102 101 103 103 102 101 88 86 80 76 68 69 70 74 77 79
147 146 141 144 145 148 146 141 139 135 136 133 131 129 128 123 124 125 121 119 120 114 113 108 114 107 110 106 105 104 104 105 104 101 97 83 80 80 76 72 70 73 77 80 83
138 140 134 134 138 139 134 137 141 139 137 138 135 131 131 129 129 127 121 124 122 119 116 107 118 112 106 106 105 102 98 98 83 96 88 87 80 82 78 77 75 74 76 82 84
119 124 127 122 124 127 131 132 136 135 134 135 134 131 131 130 128 125 125 128 123 122 119 114 115 111 108 110 109 106 102 100 98 95 87 93 86 86 85 82 79 79 79 83 87
104 107 109 111 108 108 116 123 128 128 129 131 129 130 133 133 129 128 129 128 125 126 122 121 114 114 110 106 110 108 105 103 98 95 91 94 91 84 95 86 84 83 85 85 85
87 89 92 95 95 92 96 99 107 114 116 116 117 121 127 126 126 123 121 125 121 122 122 119 115 115 112 109 111 110 107 103 99 97 94 91 89 88 92 88 88 88 88 86 82
72 76 78 81 81 81 84 86 91 96 99 102 106 107 108 113 113 113 111 107 109 112 117 113 113 111 109 111 110 113 109 105 100 95 90 89 84 89 86 89 90 89 89 88 87
64 68 71 74 74 75 76 80 81 84 87 90 91 91 94 97 98 99 99 97 94 98 102 105 104 105 104 104 106 108 103 106 99 96 95 92 85 91 88 86 88 87 89 87 89
Wind_Direction
260 259 256 257 256 257 260 261 265 263 269 271 272 272 272 272 272 274 270 271 271 270 272 275 277 278 277 278 278 282 283 284 281 284 285 286 286 286 287 287 290 289 290 290 295
263 263 265 262 260 260 254 259 259 264 262 263 262 268 272 274 270 271 269 270 270 270 272 272 273 274 276 275 277 280 281 281 282 281 282 286 284 284 285 286 287 289 291 290 292
264 262 261 265 263 262 262 263 265 267 266 265 265 270 272 275 272 269 268 265 268 271 272 273 273 274 274 275 275 279 278 277 279 281 283 282 281 281 282 284 286 289 290 291 290
262 261 262 261 260 259 262 264 264 265 264 264 265 269 269 269 271 268 268 267 266 268 271 271 273 272 274 276 276 277 279 280 280 279 281 283 282 283 283 285 284 284 289 286 287
263 261 261 259 260 262 265 261 264 264 263 262 263 261 266 269 267 268 266 266 264 266 267 267 271 269 272 273 274 275 273 274 278 279 278 282 281 284 287 286 287 288 289 287 285
263 262 263 260 264 265 263 261 264 261 259 260 261 261 263 264 264 265 264 265 267 267 268 268 269 272 272 274 275 275 275 274 278 279 277 279 281 282 287 285 288 287 288 287 284
264 265 260 263 264 263 265 263 260 259 258 261 261 260 261 269 265 266 268 270 271 272 273 273 273 275 273 272 272 274 277 276 276 275 277 277 279 283 282 292 295 291 289 288 284
259 262 264 263 262 262 266 266 261 261 260 263 264 263 264 268 270 271 270 270 273 273 275 275 274 273 272 274 276 276 278 273 272 275 276 277 279 280 285 288 294 294 290 284 281
262 260 260 266 267 269 265 267 265 263 260 263 262 263 263 266 269 269 272 274 276 276 274 272 270 271 269 275 276 275 273 277 280 274 273 277 279 284 287 291 290 293 294 286 281
259 266 258 261 266 264 267 266 271 266 265 264 263 264 266 264 268 270 272 274 277 275 273 272 271 270 272 274 276 276 278 279 278 279 277 280 281 284 285 288 290 290 291 289 280
259 261 263 261 262 262 269 266 268 265 266 266 264 265 266 267 267 268 272 273 273 278 278 272 270 275 277 277 277 278 279 279 279 276 277 280 282 283 282 282 286 287 289 290 277
261 264 262 264 266 271 267 269 268 265 261 267 267 261 265 265 264 268 269 271 270 275 277 277 275 274 276 275 278 278 278 279 281 280 278 277 281 282 281 282 283 291 290 282 275
261 264 264 265 267 270 268 270 268 266 263 263 263 266 262 265 264 264 267 268 270 271 273 276 279 276 275 277 275 276 275 278 280 280 279 278 279 281 281 279 286 284 281 278 272
264 265 265 268 268 270 269 269 268 267 264 258 260 261 263 263 261 265 266 267 268 269 269 269 273 275 274 274 276 274 274 276 279 280 279 278 279 282 284 284 283 284 270 268 267
263 266 266 269 271 268 269 270 269 268 264 261 262 262 263 264 265 263 269 269 268 266 267 270 272 273 273 273 271 273 273 274 276 278 279 281 282 282 281 281 275 272 266 265 267
265 265 268 270 268 270 269 268 269 266 266 267 263 264 264 264 266 267 268 267 268 268 269 272 270 269 269 267 270 271 270 273 274 275 276 285 284 284 271 278 268 263 259 264 265
264 266 265 265 266 266 267 266 266 266 268 266 265 263 264 264 264 264 264 265 265 267 268 265 264 266 267 267 266 267 268 270 271 274 278 279 278 285 275 262 264 259 257 263 265
263 264 265 264 263 264 264 267 265 266 267 264 263 262 262 263 264 264 265 266 265 266 264 265 263 263 266 266 267 268 269 271 275 275 275 275 278 287 270 268 257 254 253 256 259
264 262 263 264 264 265 264 266 265 264 267 265 266 266 265 264 265 266 267 265 263 265 265 264 264 264 264 263 266 268 267 270 273 273 274 276 280 278 271 261 254 251 256 254 256
262 261 262 261 263 264 262 263 262 263 263 263 264 265 266 266 266 263 264 265 265 265 264 264 265 264 264 263 265 265 267 268 271 273 277 275 274 273 267 268 256 251 250 255 257
263 261 260 260 261 260 260 262 262 263 262 261 262 261 263 262 265 266 265 266 266 266 265 264 266 262 264 264 264 265 265 267 269 272 275 275 271 270 269 267 262 252 252 251 252
259 261 259 258 258 258 257 259 260 260 261 262 261 260 262 261 261 262 263 264 263 265 265 265 266 263 264 265 265 265 265 268 271 269 272 271 270 267 267 265 264 258 252 251 252
259 259 261 259 257 256 256 256 257 259 260 260 260 260 259 259 259 259 260 260 262 263 264 265 264 265 264 265 266 265 263 263 264 265 264 268 266 268 267 266 264 262 259 254 253
257 259 261 263 262 259 257 257 258 258 259 258 259 259 259 260 259 259 259 260 261 261 261 262 260 262 262 262 264 265 264 264 264 263 264 262 265 266 267 264 261 259 260 258 257
260 260 261 261 262 259 257 256 255 256 258 258 257 259 259 259 260 259 259 258 259 260 261 260 259 259 259 260 261 262 263 265 264 263 264 263 261 261 262 262 260 258 259 259 259
262 260 259 259 258 256 255 254 253 253 253 254 255 257 257 258 260 261 260 259 259 258 257 260 260 259 259 259 257 258 261 262 264 265 263 262 260 260 259 257 258 259 259 261 260
257 257 256 258 258 258 256 255 254 254 254 254 254 254 255 256 257 258 259 258 257 256 256 258 259 259 258 258 256 257 259 260 261 260 261 261 259 258 257 256 257 257 258 257 260
Height
10799 10802 10804 10804 10806 10808 10809 10811 10812 10812 10813 10813 10811 10812 10813 10812 10810 10812 10816 10811 10814 10814 10812 10813 10812 10810 10809 10811 10811 10807 10807 10806 10801 10803 10799 10799 10799 10797 10795 10788 10789 10782 10782 10780 10778
10784 10787 10789 10791 10792 10793 10795 10797 10798 10797 10798 10799 10799 10799 10800 10802 10799 10797 10805 10801 10801 10800 10800 10800 10801 10800 10798 10798 10798 10797 10795 10792 10789 10790 10789 10787 10789 10783 10788 10780 10778 10772 10775 10770 10767
10769 10771 10773 10776 10778 10778 10779 10781 10783 10783 10783 10784 10785 10788 10788 10789 10787 10790 10784 10789 10789 10787 10787 10787 10786 10786 10786 10785 10785 10787 10784 10779 10778 10779 10777 10774 10775 10775 10774 10771 10767 10764 10766 10760 10757
10751 10753 10756 10759 10762 10764 10764 10765 10767 10769 10769 10770 10771 10773 10774 10776 10775 10774 10773 10775 10774 10775 10774 10774 10773 10772 10773 10771 10772 10773 10768 10766 10765 10764 10765 10764 10762 10762 10760 10760 10756 10751 10757 10749 10747
10734 10736 10738 10740 10743 10746 10748 10749 10751 10752 10754 10755 10756 10758 10761 10765 10754 10759 10757 10759 10756 10759 10759 10759 10759 10760 10761 10759 10757 10758 10756 10754 10753 10752 10752 10753 10752 10749 10750 10744 10745 10740 10745 10738 10737
10717 10718 10718 10720 10723 10726 10729 10731 10733 10735 10736 10738 10740 10742 10746 10751 10736 10740 10743 10742 10742 10744 10742 10743 10745 10746 10749 10743 10743 10741 10743 10741 10741 10740 10737 10739 10740 10740 10737 10731 10733 10730 10730 10727 10725
10696 10698 10699 10702 10706 10708 10708 10710 10714 10717 10718 10720 10721 10723 10734 10728 10726 10723 10724 10726 10729 10731 10730 10726 10730 10731 10731 10729 10726 10726 10729 10730 10728 10723 10727 10725 10731 10728 10723 10724 10719 10718 10717 10715 10712
10677 10679 10681 10684 10686 10688 10689 10690 10693 10696 10699 10701 10704 10707 10721 10706 10707 10707 10706 10707 10709 10713 10714 10710 10713 10717 10714 10714 10714 10708 10713 10712 10711 10711 10714 10713 10723 10713 10714 10714 10709 10707 10705 10701 10700
10658 10659 10663 10664 10667 10667 10668 10669 10672 10676 10679 10683 10685 10688 10702 10699 10686 10688 10687 10690 10692 10693 10694 10694 10694 10699 10700 10700 10700 10692 10696 10696 10697 10696 10696 10700 10708 10700 10699 10705 10696 10696 10693 10690 10687
10637 10639 10642 10644 10645 10647 10647 10648 10650 10653 10658 10663 10664 10669 10674 10680 10674 10669 10672 10671 10671 10675 10678 10675 10679 10683 10684 10680 10685 10677 10681 10683 10681 10676 10683 10684 10693 10691 10687 10691 10685 10683 10680 10678 10675
10613 10617 10617 10621 10623 10623 10625 10624 10628 10629 10636 10638 10645 10652 10653 10655 10657 10660 10656 10650 10650 10654 10658 10659 10664 10668 10660 10660 10662 10664 10664 10664 10662 10660 10664 10669 10676 10677 10675 10674 10674 10667 10666 10666 10660
10589 10592 10595 10597 10599 10602 10599 10599 10600 10604 10614 10621 10622 10637 10632 10625 10644 10638 10632 10635 10631 10636 10630 10633 10657 10643 10638 10644 10643 10647 10646 10645 10643 10641 10647 10652 10662 10660 10659 10658 10662 10651 10650 10650 10644
10564 10566 10568 10571 10573 10574 10573 10571 10575 10573 10583 10607 10604 10611 10609 10606 10619 10624 10605 10610 10611 10618 10612 10608 10640 10616 10624 10624 10625 10624 10626 10624 10623 10619 10630 10629 10649 10642 10643 10644 10642 10643 10632 10632 10631
10534 10539 10541 10544 10544 10548 10543 10547 10543 10542 10546 10592 10584 10594 10593 10582 10600 10590 10587 10584 10590 10601 10579 10596 10615 10600 10596 10609 10600 10606 10599 10598 10600 10598 10610 10603 10624 10627 10625 10626 10625 10626 10618 10615 10615
10506 10507 10511 10514 10516 10516 10516 10515 10510 10507 10508 10563 10560 10575 10566 10560 10560 10570 10566 10554 10570 10565 10556 10598 10583 10576 10579 10589 10577 10594 10576 10577 10581 10581 10581 10606 10578 10632 10603 10610 10606 10607 10603 10599 10599
10474 10478 10480 10483 10482 10483 10486 10481 10471 10466 10496 10521 10528 10536 10534 10533 10535 10539 10540 10535 10536 10536 10533 10565 10550 10555 10562 10560 10559 10566 10561 10556 10561 10561 10562 10602 10560 10595 10587 10588 10590 10588 10590 10583 10584
10440 10442 10449 10449 10449 10453 10450 10442 10431 10442 10488 10491 10482 10494 10504 10510 10510 10507 10514 10510 10511 10509 10518 10521 10535 10530 10530 10534 10542 10543 10538 10532 10542 10540 10553 10567 10543 10576 10571 10568 10573 10574 10573 10568 10570
10403 10407 10410 10414 10416 10420 10417 10400 10390 10442 10454 10443 10435 10454 10472 10479 10477 10481 10481 10489 10491 10486 10490 10491 10506 10511 10505 10512 10518 10519 10514 10521 10517 10514 10526 10543 10537 10561 10542 10550 10556 10554 10557 10555 10555
10363 10368 10372 10380 10384 10383 10375 10360 10375 10418 10413 10399 10417 10420 10441 10446 10447 10447 10450 10460 10461 10462 10465 10467 10479 10483 10478 10489 10493 10507 10490 10505 10486 10497 10495 10530 10529 10526 10524 10529 10534 10539 10539 10538 10538
10320 10321 10333 10342 10346 10343 10331 10334 10354 10380 10372 10373 10386 10396 10398 10412 10411 10419 10422 10428 10427 10426 10441 10452 10445 10457 10454 10464 10472 10474 10477 10475 10474 10476 10479 10508 10505 10501 10496 10514 10518 10520 10522 10522 10520
10264 10269 10296 10300 10303 10295 10300 10313 10321 10335 10336 10340 10352 10360 10363 10381 10382 10380 10392 10393 10390 10404 10410 10429 10415 10440 10427 10443 10447 10448 10452 10454 10457 10460 10460 10476 10479 10481 10484 10489 10496 10502 10503 10502 10504
10225 10221 10246 10254 10256 10266 10274 10283 10280 10293 10301 10305 10314 10327 10333 10344 10347 10352 10361 10350 10366 10377 10383 10407 10383 10404 10414 10413 10416 10425 10433 10432 10440 10438 10443 10444 10460 10459 10462 10466 10473 10479 10485 10482 10483
10190 10192 10195 10211 10225 10234 10241 10244 10244 10255 10264 10265 10275 10287 10294 10304 10309 10322 10329 10318 10341 10344 10359 10369 10364 10374 10383 10385 10389 10396 10401 10405 10415 10419 10425 10420 10433 10435 10438 10444 10450 10455 10461 10462 10462
10159 10164 10170 10173 10191 10208 10212 10211 10211 10222 10226 10230 10239 10246 10253 10260 10274 10284 10291 10295 10307 10312 10324 10328 10343 10344 10354 10363 10352 10364 10372 10378 10385 10395 10402 10402 10409 10416 10410 10421 10425 10430 10435 10439 10443
10138 10144 10148 10151 10159 10172 10175 10183 10182 10187 10189 10196 10208 10215 10216 10224 10234 10242 10261 10263 10276 10283 10288 10294 10310 10314 10325 10335 10329 10334 10345 10353 10359 10367 10373 10382 10387 10390 10388 10398 10403 10407 10411 10416 10423
10121 10121 10125 10124 10132 10140 10142 10150 10152 10154 10161 10170 10175 10183 10190 10194 10199 10212 10220 10238 10253 10254 10253 10261 10273 10281 10295 10303 10303 10302 10315 10327 10334 10344 10349 10352 10365 10359 10371 10374 10380 10385 10389 10395 10400
10098 10098 10101 10103 10109 10114 10120 10121 10128 10131 10137 10142 10150 10160 10163 10166 10175 10182 10191 10205 10220 10226 10229 10234 10245 10249 10260 10268 10272 10277 10300 10298 10311 10319 10323 10324 10343 10334 10347 10354 10358 10365 10368 10372 10376